Temp
-11 -11 -11 -11 -11 -11 -10 -10 -10 -10 -10 -10 -10 -10 -10 -10 -10 -10 -10 -10 -10 -10 -10 -10 -10 -9 -9 -9 -9 -9 -9 -10 -12 -10 -11 -9 -10 -10 -10 -10 -11 -11 -11 -11 -11
-11 -11 -11 -11 -11 -11 -11 -11 -11 -11 -10 -10 -11 -11 -11 -11 -10 -10 -10 -10 -10 -10 -10 -10 -10 -10 -10 -9 -10 -9 -9 -11 -10 -9 -10 -9 -10 -10 -11 -11 -11 -11 -11 -11 -11
-11 -11 -11 -11 -11 -11 -12 -11 -11 -11 -11 -11 -11 -11 -11 -11 -11 -10 -11 -10 -10 -10 -10 -11 -11 -11 -10 -10 -10 -10 -10 -10 -10 -10 -10 -10 -10 -11 -11 -11 -11 -11 -11 -11 -11
-11 -12 -11 -11 -11 -11 -12 -12 -12 -12 -12 -12 -11 -11 -12 -12 -12 -11 -11 -11 -11 -11 -11 -11 -11 -11 -11 -11 -11 -11 -10 -10 -10 -10 -11 -11 -11 -11 -12 -12 -11 -11 -11 -11 -12
-11 -12 -12 -12 -12 -12 -12 -12 -12 -12 -12 -12 -12 -12 -12 -12 -12 -11 -11 -11 -11 -11 -12 -12 -12 -12 -12 -12 -11 -11 -11 -11 -11 -11 -11 -11 -12 -12 -12 -12 -12 -11 -11 -12 -12
-11 -11 -12 -12 -12 -12 -12 -12 -12 -12 -12 -12 -12 -12 -12 -12 -12 -12 -12 -11 -11 -11 -12 -12 -13 -12 -12 -12 -12 -12 -12 -12 -12 -12 -12 -12 -12 -12 -12 -12 -12 -12 -12 -12 -12
-12 -11 -12 -12 -12 -12 -12 -12 -12 -12 -12 -12 -12 -12 -12 -12 -12 -12 -12 -12 -11 -11 -12 -11 -12 -12 -12 -13 -12 -12 -12 -13 -13 -12 -13 -13 -12 -12 -13 -12 -13 -12 -12 -12 -12
-12 -12 -12 -12 -12 -12 -12 -12 -12 -12 -12 -11 -12 -11 -12 -13 -12 -12 -11 -11 -11 -11 -11 -12 -12 -12 -12 -13 -13 -12 -12 -12 -13 -12 -13 -13 -13 -13 -13 -13 -13 -13 -13 -13 -13
-12 -12 -12 -13 -12 -12 -12 -12 -12 -12 -12 -12 -12 -12 -12 -12 -12 -12 -12 -12 -12 -11 -12 -12 -12 -12 -13 -13 -13 -13 -12 -13 -14 -13 -13 -12 -13 -13 -13 -12 -13 -13 -13 -13 -13
-13 -12 -13 -13 -13 -13 -13 -13 -13 -13 -13 -13 -13 -12 -13 -12 -12 -13 -13 -13 -12 -12 -12 -13 -12 -13 -13 -13 -14 -15 -14 -13 -13 -14 -12 -13 -12 -13 -12 -12 -13 -12 -13 -13 -13
-14 -14 -14 -14 -14 -14 -14 -14 -13 -13 -13 -14 -13 -14 -13 -13 -13 -13 -13 -13 -13 -13 -13 -13 -13 -13 -14 -13 -14 -14 -13 -13 -14 -13 -12 -12 -13 -13 -13 -11 -13 -12 -13 -13 -13
-15 -15 -15 -15 -15 -15 -14 -14 -14 -14 -13 -13 -14 -13 -14 -14 -14 -14 -14 -14 -13 -14 -14 -14 -13 -14 -14 -13 -14 -14 -14 -14 -13 -14 -12 -13 -12 -13 -13 -12 -12 -13 -13 -13 -13
-15 -15 -15 -15 -15 -15 -15 -14 -14 -14 -13 -13 -14 -13 -14 -14 -13 -14 -14 -14 -14 -14 -15 -14 -14 -14 -15 -14 -14 -14 -15 -14 -14 -14 -13 -13 -12 -12 -13 -12 -12 -13 -13 -13 -13
-15 -16 -16 -16 -16 -16 -16 -16 -16 -16 -15 -14 -14 -14 -14 -14 -14 -14 -15 -14 -14 -14 -15 -15 -15 -15 -14 -15 -15 -14 -15 -15 -15 -14 -14 -14 -12 -13 -13 -12 -12 -14 -13 -13 -13
-17 -17 -17 -17 -17 -17 -17 -17 -17 -16 -17 -15 -14 -14 -14 -15 -14 -14 -15 -15 -15 -15 -16 -15 -15 -15 -15 -15 -15 -15 -15 -15 -15 -14 -14 -14 -14 -13 -13 -13 -13 -13 -14 -14 -14
-18 -18 -18 -18 -18 -18 -18 -18 -18 -18 -16 -16 -15 -15 -16 -16 -16 -15 -15 -16 -16 -16 -17 -16 -16 -16 -16 -16 -16 -16 -15 -16 -16 -16 -14 -14 -15 -11 -16 -15 -13 -13 -14 -14 -14
-20 -19 -19 -19 -19 -20 -20 -20 -20 -18 -17 -18 -17 -16 -17 -18 -18 -17 -17 -17 -18 -18 -19 -18 -17 -17 -16 -16 -16 -16 -16 -16 -16 -16 -14 -16 -17 -12 -16 -14 -15 -14 -14 -15 -15
-20 -20 -21 -21 -21 -21 -21 -22 -21 -17 -18 -20 -19 -19 -19 -19 -19 -19 -18 -19 -19 -20 -20 -19 -18 -19 -18 -17 -17 -17 -17 -17 -17 -17 -18 -17 -16 -16 -16 -15 -14 -15 -15 -15 -15
-22 -22 -22 -22 -22 -23 -23 -23 -20 -19 -20 -22 -21 -20 -19 -20 -20 -21 -19 -20 -20 -19 -19 -19 -18 -19 -18 -18 -18 -17 -18 -18 -18 -17 -18 -15 -15 -17 -16 -16 -16 -16 -16 -15 -16
-23 -23 -23 -23 -23 -24 -24 -22 -21 -21 -22 -22 -22 -21 -21 -21 -23 -22 -21 -21 -21 -21 -20 -19 -19 -20 -19 -19 -18 -18 -19 -18 -18 -18 -19 -16 -18 -17 -17 -17 -16 -17 -17 -17 -17
-24 -24 -23 -24 -24 -24 -24 -23 -22 -23 -24 -24 -23 -22 -22 -22 -23 -24 -24 -23 -22 -21 -21 -20 -20 -20 -21 -19 -20 -20 -19 -19 -20 -19 -19 -18 -18 -18 -17 -17 -17 -18 -18 -18 -18
-25 -25 -24 -25 -26 -25 -24 -23 -24 -24 -24 -24 -23 -23 -23 -23 -24 -24 -23 -24 -23 -22 -23 -22 -21 -20 -22 -21 -22 -22 -20 -21 -20 -19 -20 -19 -16 -18 -18 -18 -18 -18 -19 -19 -19
-27 -26 -26 -26 -26 -25 -25 -25 -25 -25 -25 -25 -24 -24 -24 -24 -25 -24 -24 -24 -24 -23 -23 -23 -22 -22 -22 -22 -21 -23 -22 -21 -21 -21 -20 -20 -17 -19 -20 -19 -19 -20 -19 -19 -19
-28 -28 -27 -27 -26 -26 -26 -26 -25 -25 -26 -25 -25 -25 -24 -24 -24 -25 -25 -25 -25 -24 -24 -24 -23 -23 -23 -23 -22 -22 -21 -21 -21 -21 -20 -20 -19 -19 -20 -21 -20 -21 -20 -20 -20
-28 -27 -27 -28 -27 -27 -27 -27 -27 -26 -26 -27 -26 -26 -26 -25 -26 -26 -25 -26 -26 -24 -25 -25 -23 -24 -23 -23 -23 -23 -21 -22 -22 -22 -21 -21 -21 -19 -20 -21 -21 -21 -20 -20 -21
-27 -28 -28 -28 -28 -28 -28 -28 -28 -28 -27 -27 -27 -27 -27 -27 -26 -26 -28 -27 -27 -25 -25 -26 -24 -25 -23 -23 -25 -24 -23 -22 -23 -22 -23 -22 -21 -21 -21 -22 -22 -22 -21 -21 -21
-28 -28 -28 -28 -29 -29 -28 -28 -28 -29 -29 -29 -28 -28 -28 -28 -28 -27 -27 -26 -26 -26 -26 -26 -25 -25 -25 -25 -26 -25 -22 -24 -24 -23 -23 -23 -22 -22 -22 -22 -22 -21 -21 -21 -21
Height
5819 5819 5821 5821 5820 5821 5822 5823 5823 5824 5825 5825 5824 5824 5823 5823 5823 5823 5824 5824 5824 5825 5825 5826 5827 5827 5827 5827 5828 5829 5830 5830 5832 5830 5829 5826 5826 5826 5824 5821 5823 5825 5823 5825 5823
5811 5812 5813 5813 5813 5814 5814 5815 5816 5818 5818 5818 5818 5817 5816 5816 5817 5816 5818 5817 5818 5819 5820 5821 5821 5823 5822 5823 5823 5823 5824 5824 5820 5822 5823 5820 5821 5819 5819 5816 5817 5817 5818 5818 5818
5804 5805 5805 5807 5805 5805 5807 5807 5807 5807 5809 5809 5810 5809 5809 5810 5809 5811 5810 5811 5812 5812 5813 5814 5815 5815 5816 5815 5816 5816 5817 5813 5815 5814 5815 5813 5815 5807 5814 5810 5808 5809 5811 5811 5812
5793 5794 5795 5797 5798 5798 5798 5799 5799 5798 5801 5801 5802 5803 5802 5803 5804 5807 5805 5805 5806 5806 5805 5805 5806 5806 5809 5809 5808 5809 5809 5809 5806 5808 5807 5806 5806 5804 5807 5802 5803 5804 5804 5804 5804
5782 5785 5785 5786 5786 5788 5789 5790 5791 5791 5792 5794 5793 5795 5795 5796 5797 5796 5797 5798 5798 5798 5797 5799 5800 5800 5799 5799 5800 5800 5801 5801 5799 5798 5798 5798 5798 5797 5799 5796 5796 5797 5797 5797 5797
5774 5776 5777 5776 5777 5777 5778 5780 5783 5784 5785 5786 5787 5786 5789 5791 5787 5787 5789 5790 5790 5790 5789 5790 5792 5793 5791 5792 5791 5790 5793 5791 5792 5790 5789 5791 5790 5787 5791 5792 5788 5790 5790 5790 5789
5763 5765 5767 5768 5768 5770 5769 5771 5771 5774 5776 5776 5778 5779 5780 5786 5779 5781 5782 5782 5781 5780 5781 5782 5784 5785 5783 5783 5783 5783 5783 5783 5785 5784 5781 5781 5781 5778 5784 5780 5783 5783 5783 5782 5782
5752 5754 5755 5758 5758 5759 5761 5761 5762 5765 5766 5768 5768 5769 5774 5774 5773 5773 5773 5774 5774 5774 5775 5776 5777 5777 5776 5776 5776 5775 5776 5776 5777 5775 5776 5772 5773 5774 5771 5772 5774 5775 5776 5776 5775
5742 5742 5744 5747 5747 5748 5749 5751 5752 5753 5756 5757 5759 5759 5763 5767 5764 5766 5765 5765 5765 5766 5766 5767 5769 5769 5770 5769 5768 5769 5769 5770 5770 5768 5767 5767 5768 5766 5760 5765 5766 5767 5768 5767 5766
5730 5731 5733 5735 5737 5738 5738 5740 5741 5742 5744 5746 5747 5750 5752 5757 5757 5758 5755 5755 5757 5757 5758 5760 5761 5762 5764 5762 5762 5763 5762 5763 5764 5760 5759 5760 5760 5761 5757 5759 5760 5759 5760 5759 5759
5716 5719 5720 5722 5723 5726 5728 5728 5730 5732 5731 5739 5735 5742 5740 5744 5746 5746 5749 5749 5748 5749 5751 5751 5752 5755 5757 5753 5753 5755 5755 5755 5756 5754 5754 5753 5753 5756 5751 5752 5754 5750 5752 5751 5752
5703 5705 5706 5708 5711 5711 5714 5715 5717 5718 5719 5727 5729 5727 5733 5729 5735 5738 5738 5741 5741 5741 5741 5741 5745 5749 5747 5746 5747 5747 5747 5749 5749 5747 5742 5748 5747 5748 5749 5744 5749 5745 5744 5746 5745
5686 5689 5691 5692 5694 5697 5698 5702 5702 5702 5706 5712 5716 5719 5720 5718 5721 5728 5726 5729 5729 5731 5732 5732 5736 5736 5738 5738 5738 5739 5740 5740 5740 5739 5737 5739 5738 5741 5741 5739 5740 5741 5740 5738 5737
5671 5674 5674 5677 5679 5681 5684 5685 5687 5688 5690 5699 5699 5704 5704 5705 5707 5711 5712 5715 5718 5719 5721 5722 5726 5724 5727 5729 5729 5729 5731 5728 5729 5732 5731 5730 5727 5732 5730 5730 5732 5732 5731 5730 5729
5654 5657 5659 5660 5663 5665 5668 5669 5671 5675 5676 5683 5684 5686 5689 5692 5694 5695 5697 5699 5703 5707 5708 5714 5712 5715 5714 5718 5719 5718 5719 5719 5720 5720 5720 5723 5718 5723 5725 5719 5721 5723 5722 5721 5720
5636 5640 5642 5644 5646 5649 5651 5652 5655 5661 5665 5670 5671 5672 5671 5672 5676 5681 5682 5683 5689 5690 5691 5700 5699 5702 5705 5705 5707 5708 5707 5708 5707 5708 5707 5712 5711 5717 5715 5713 5707 5710 5713 5712 5711
5620 5623 5625 5629 5630 5633 5634 5635 5639 5648 5660 5654 5657 5658 5658 5659 5664 5666 5669 5671 5674 5676 5677 5682 5686 5690 5691 5692 5693 5695 5697 5696 5696 5694 5697 5703 5702 5710 5702 5701 5699 5698 5699 5702 5701
5605 5608 5610 5612 5617 5618 5619 5619 5621 5644 5647 5639 5642 5643 5648 5646 5649 5653 5657 5660 5660 5662 5663 5668 5674 5675 5678 5680 5681 5681 5682 5682 5680 5685 5689 5695 5691 5694 5690 5690 5688 5691 5688 5687 5688
5587 5591 5596 5599 5601 5602 5602 5600 5615 5631 5631 5623 5627 5628 5635 5637 5640 5639 5644 5646 5648 5654 5650 5655 5661 5660 5664 5664 5667 5674 5669 5676 5667 5671 5671 5680 5684 5687 5679 5678 5679 5676 5674 5675 5675
5573 5573 5581 5585 5585 5585 5582 5589 5606 5613 5612 5608 5613 5620 5624 5627 5626 5627 5630 5633 5633 5638 5639 5645 5647 5650 5651 5650 5653 5655 5659 5661 5657 5657 5660 5667 5672 5676 5672 5664 5662 5661 5662 5661 5662
5554 5553 5567 5571 5566 5566 5566 5582 5596 5598 5597 5597 5601 5605 5610 5614 5613 5616 5620 5621 5622 5626 5623 5627 5635 5643 5638 5644 5645 5643 5645 5647 5646 5646 5651 5655 5661 5666 5658 5656 5651 5648 5648 5650 5650
5535 5536 5549 5553 5549 5550 5556 5575 5582 5581 5581 5581 5588 5593 5597 5600 5601 5603 5608 5610 5602 5609 5613 5613 5618 5626 5630 5633 5633 5633 5633 5637 5634 5637 5638 5641 5648 5653 5643 5644 5644 5638 5637 5636 5637
5517 5525 5530 5533 5531 5538 5550 5555 5560 5565 5565 5568 5576 5579 5583 5586 5589 5591 5595 5593 5596 5596 5597 5601 5605 5610 5613 5620 5622 5619 5625 5626 5625 5625 5625 5628 5639 5644 5634 5634 5630 5629 5627 5627 5627
5507 5509 5513 5515 5525 5528 5535 5539 5544 5550 5552 5557 5562 5563 5568 5572 5576 5579 5581 5582 5581 5586 5590 5591 5595 5597 5600 5607 5610 5610 5611 5610 5611 5613 5618 5616 5622 5626 5623 5627 5619 5617 5616 5618 5617
5493 5494 5501 5506 5512 5520 5524 5528 5531 5535 5540 5542 5545 5550 5557 5559 5562 5564 5568 5569 5569 5574 5577 5577 5582 5586 5588 5591 5593 5597 5599 5599 5600 5603 5602 5610 5608 5610 5612 5613 5610 5605 5605 5608 5606
5482 5483 5491 5498 5504 5506 5511 5517 5522 5526 5528 5531 5533 5538 5541 5544 5550 5554 5556 5556 5559 5563 5567 5568 5572 5573 5577 5581 5579 5582 5589 5593 5591 5591 5591 5596 5597 5607 5605 5601 5597 5595 5595 5595 5596
5472 5481 5480 5487 5491 5495 5503 5511 5512 5514 5517 5518 5523 5526 5529 5533 5532 5536 5541 5545 5549 5553 5558 5560 5563 5565 5566 5570 5569 5570 5581 5578 5580 5582 5583 5583 5590 5594 5592 5589 5587 5586 5588 5586 5583
Wind_Speed
35 34 34 34 32 32 32 33 31 33 35 35 35 34 30 30 32 32 27 24 20 18 19 22 24 23 25 23 21 25 27 26 21 31 30 32 33 30 32 34 32 29 33 28 30
39 39 39 40 41 40 36 35 36 38 40 43 41 37 34 34 34 33 30 27 25 24 23 23 25 26 26 27 24 25 28 26 34 34 34 37 34 36 33 34 30 31 29 30 30
44 44 44 44 42 41 40 43 43 43 41 37 37 31 31 33 36 34 32 30 28 29 30 29 29 28 31 30 30 30 31 37 35 36 35 38 37 42 32 37 32 29 28 29 30
47 46 47 44 40 41 41 41 39 41 40 36 34 34 33 34 36 32 33 32 32 31 32 32 31 30 30 31 32 32 35 36 40 37 37 37 39 41 30 37 36 28 30 31 30
46 47 45 43 38 38 39 40 42 41 41 39 37 36 36 34 39 39 39 35 34 31 30 30 30 30 30 32 34 34 36 38 41 41 40 39 38 38 34 37 36 34 34 33 32
47 48 47 46 43 40 39 40 43 42 40 41 38 35 37 34 37 37 36 35 33 34 30 31 32 31 34 32 33 37 34 41 42 41 42 39 41 45 37 37 41 38 39 37 33
50 51 50 50 48 45 43 44 43 43 42 42 42 40 37 33 39 35 37 37 36 35 33 33 31 34 36 36 31 34 35 36 38 41 42 42 44 47 35 42 38 40 40 37 35
52 53 53 52 52 49 47 47 47 46 45 46 45 44 40 38 38 36 39 38 37 36 35 33 31 34 33 33 30 30 33 31 31 38 35 40 37 34 38 36 34 38 40 37 34
56 56 56 56 55 55 53 53 51 49 48 47 48 49 44 40 40 38 40 41 38 37 37 35 33 32 31 32 31 28 27 28 28 33 31 37 33 30 40 30 32 35 34 34 34
62 62 62 62 61 59 58 58 58 56 54 51 50 53 50 42 44 41 42 41 41 39 38 36 37 35 32 32 30 24 26 23 25 30 28 33 31 31 37 35 34 35 34 33 34
68 68 66 66 65 65 63 62 63 62 61 55 57 50 55 51 47 46 42 42 43 43 40 40 40 33 32 36 35 34 29 27 25 30 32 29 32 30 38 36 33 38 34 36 33
74 72 71 70 71 70 69 68 66 68 67 60 57 60 51 56 51 46 44 42 44 44 43 46 42 35 39 40 37 36 33 32 33 33 38 28 33 33 31 41 30 36 36 34 34
76 75 75 73 70 68 67 68 68 67 71 68 63 61 57 59 56 50 50 44 45 45 45 48 44 43 41 42 41 38 36 38 40 37 37 34 37 32 34 39 35 35 35 35 32
80 78 70 69 69 66 66 64 65 65 67 66 68 64 61 60 58 55 52 51 48 47 47 50 46 48 45 42 43 43 41 45 45 40 42 40 43 36 38 41 36 32 35 35 34
72 71 69 69 66 66 64 63 63 64 64 67 70 66 63 58 58 56 55 55 54 51 53 49 52 49 50 46 45 49 46 48 47 47 47 45 48 42 38 45 42 38 38 36 35
70 68 66 66 65 64 64 61 61 58 64 62 64 61 61 56 54 53 55 55 55 53 54 55 53 56 51 52 50 48 51 50 51 49 53 47 46 46 33 39 51 46 40 39 37
61 61 60 59 61 58 57 56 55 59 56 55 57 59 59 57 51 50 51 51 48 50 51 52 55 53 56 56 57 54 55 57 58 58 58 42 40 45 39 49 50 50 49 46 47
60 58 57 55 54 53 51 50 54 57 52 51 53 52 49 50 51 49 49 48 49 48 50 51 50 50 55 60 52 59 56 57 56 45 42 33 41 39 45 55 60 54 55 56 50
60 59 56 54 52 53 55 56 55 48 47 49 49 53 51 50 51 49 50 46 42 29 41 48 50 52 58 60 58 56 58 50 52 56 54 54 53 37 54 53 53 56 58 59 58
61 62 59 57 56 57 59 60 54 50 49 54 52 50 47 47 38 45 49 48 47 47 49 39 33 30 26 38 45 48 51 50 38 47 46 51 42 41 37 43 55 55 53 51 48
64 66 60 59 61 62 64 59 51 48 51 51 50 49 50 49 48 40 41 36 39 33 41 50 49 44 37 45 44 42 46 49 52 56 52 50 44 35 42 42 46 50 49 49 48
66 68 64 62 63 66 65 56 52 54 56 58 55 52 48 44 41 43 47 36 45 50 50 55 50 50 42 37 29 35 46 46 39 44 47 47 55 43 42 45 49 54 55 58 56
57 59 61 57 62 66 62 60 57 56 59 58 54 52 49 49 45 41 42 39 40 32 41 44 46 48 47 45 50 47 41 41 52 42 49 44 44 31 44 47 54 52 53 52 52
52 51 48 51 55 52 56 61 61 59 57 57 55 55 53 51 49 46 44 44 49 49 48 46 45 47 47 38 21 32 29 31 35 50 39 41 38 43 49 43 44 49 45 47 48
46 57 51 49 49 50 43 42 44 52 55 56 57 55 53 52 49 46 48 47 45 46 40 43 44 44 44 46 48 45 42 30 34 39 36 39 36 33 33 41 39 43 50 46 48
56 61 50 53 52 46 42 43 44 43 41 39 47 52 52 51 49 46 36 45 46 48 43 41 39 38 39 40 41 41 45 51 49 53 50 47 50 41 40 48 52 54 57 54 48
52 57 48 43 39 45 44 41 40 36 39 42 40 40 34 44 48 53 52 50 48 47 39 37 36 37 37 33 31 35 29 34 36 36 42 46 41 38 43 45 44 49 45 46 46
Wind_Direction
271 271 269 271 272 276 280 274 269 262 272 286 290 278 277 278 274 273 271 274 276 274 272 268 264 259 256 252 256 262 261 262 268 260 254 267 260 256 253 257 254 261 261 264 265
267 268 270 273 275 274 274 273 273 272 275 282 287 276 272 273 271 268 268 270 274 278 279 274 267 262 257 261 261 260 259 256 251 259 264 269 266 263 256 254 253 256 261 261 262
271 269 272 279 278 276 273 273 271 272 272 277 279 275 276 272 268 266 270 270 274 278 280 278 276 265 264 263 262 259 255 255 259 257 260 265 268 268 263 264 261 257 261 264 264
270 268 272 274 272 273 274 274 270 269 268 269 269 274 273 268 267 266 271 272 278 280 280 275 266 261 263 265 267 262 258 256 257 256 257 262 265 265 263 259 269 267 264 264 263
268 270 271 270 268 266 269 269 271 272 270 269 269 267 266 269 269 271 272 274 276 277 274 272 268 263 257 262 265 264 260 256 258 259 256 260 263 263 263 267 270 270 268 265 266
267 269 269 270 269 266 265 266 269 270 269 271 270 264 265 266 269 271 273 278 280 276 270 265 261 260 263 263 266 271 263 261 259 258 260 260 261 261 265 268 268 271 269 268 267
265 265 267 269 268 267 266 267 266 267 268 268 270 266 263 265 268 270 275 279 279 277 273 267 263 264 267 262 266 270 269 261 263 262 262 263 259 265 267 262 267 267 266 266 265
264 265 265 266 268 269 267 265 265 267 268 270 268 267 266 267 267 267 272 276 279 278 274 267 263 264 263 263 266 266 270 265 264 265 263 261 262 270 263 263 262 263 264 263 263
263 264 266 266 265 267 267 266 265 265 265 267 270 270 268 265 265 268 270 275 273 273 270 267 265 262 261 264 263 265 266 268 267 270 262 260 263 261 263 265 262 261 261 263 262
264 265 267 268 268 267 267 265 266 267 267 266 265 268 267 267 268 268 268 269 270 269 268 265 263 261 261 257 259 261 266 263 263 266 258 265 262 259 265 265 262 260 262 264 266
265 267 268 269 269 270 270 269 268 267 267 270 270 268 272 271 268 268 269 268 266 266 265 264 260 260 258 253 253 256 258 258 254 257 265 261 263 258 267 257 263 268 261 264 269
269 271 272 272 273 274 273 272 272 271 269 269 271 273 272 273 270 271 271 271 268 263 262 262 262 258 254 257 259 260 257 257 256 258 259 262 266 266 264 272 261 267 273 272 273
269 271 273 274 274 274 272 273 272 271 271 271 272 272 273 272 273 272 269 266 266 263 257 260 261 257 252 258 258 259 258 258 258 256 260 263 256 265 265 264 267 268 271 270 273
271 272 270 270 269 269 270 270 270 271 272 272 272 270 269 268 267 265 265 265 260 259 255 256 253 256 255 252 258 257 259 258 255 259 260 261 262 259 265 266 264 270 270 270 269
268 268 269 269 268 265 265 265 267 269 271 274 273 273 270 265 267 263 260 260 260 257 252 253 253 252 255 256 253 256 256 259 263 258 260 256 262 261 261 267 265 264 266 269 271
265 265 265 264 264 264 264 263 264 261 264 267 271 271 269 264 260 258 257 257 255 254 254 250 253 253 255 255 255 256 257 258 259 261 256 259 262 257 266 263 269 262 265 268 271
264 265 263 263 263 263 262 260 257 261 266 264 263 264 263 264 262 260 255 254 254 252 250 249 248 252 253 255 255 254 256 257 259 260 257 264 264 260 264 260 259 268 272 271 271
261 261 261 260 261 260 256 252 254 265 262 258 260 259 258 261 263 261 257 254 252 254 251 248 246 247 245 250 255 259 256 257 257 256 258 252 254 261 257 265 269 269 270 272 272
258 257 257 257 256 253 251 249 258 261 258 256 256 255 255 260 261 260 262 259 258 255 260 253 253 249 252 256 253 256 259 264 261 258 256 258 258 258 263 266 268 270 271 270 272
255 254 254 254 251 249 249 251 255 253 250 254 256 259 254 256 260 260 257 260 252 257 259 251 243 235 245 257 257 255 256 252 250 256 257 259 260 267 269 271 270 271 274 272 272
250 251 249 251 251 247 249 253 254 250 252 253 255 256 256 253 254 251 254 255 248 241 249 250 247 249 243 248 249 257 256 257 252 250 254 253 253 250 254 256 265 267 270 272 271
251 252 250 248 248 249 250 254 251 251 248 254 253 256 258 256 257 255 256 243 246 249 243 253 255 244 244 247 253 239 254 255 259 263 262 259 255 246 254 251 255 262 270 275 279
255 256 253 251 250 251 252 251 247 247 249 250 250 250 247 249 251 254 247 240 235 240 243 251 255 256 255 249 251 256 250 253 249 241 247 251 260 256 256 262 265 268 270 274 275
245 255 253 255 256 255 253 251 250 248 248 252 252 251 249 247 247 244 246 241 240 244 250 253 255 254 253 246 224 237 244 252 258 251 256 255 256 243 249 264 267 270 266 267 272
243 243 242 245 252 263 255 251 253 252 253 249 251 251 251 251 250 247 248 247 254 251 253 255 255 250 252 254 245 229 221 226 232 236 240 250 237 237 249 248 252 263 267 270 274
234 232 241 249 248 239 233 249 257 254 255 253 254 249 249 250 250 248 248 250 253 256 260 258 261 261 256 254 258 256 241 240 244 251 254 256 248 247 259 273 273 273 274 280 279
222 235 231 238 234 243 255 261 243 256 245 239 243 241 242 246 246 244 248 252 253 256 252 253 256 258 262 257 258 257 268 254 254 251 255 257 258 257 255 262 267 268 272 277 278